Time,TemperatureF,DewpointF,PressureIn,WindDirection,WindDirectionDegrees,WindSpeedMPH,WindSpeedGustMPH,Humidity,HourlyPrecipIn,Conditions,Clouds,dailyrainin,SoftwareType,DateUTC
2013-02-13 00:00:00,36.7,26.8,27.52,East,90,0.0,0.2,67,0.00,,,0.00,WUHU216HW,2013-02-13 07:00:00,
2013-02-13 00:05:00,36.4,26.5,27.52,East,90,0.0,0.2,67,0.00,,,0.00,WUHU216HW,2013-02-13 07:05:00,
2013-02-13 00:10:00,36.4,26.8,27.52,East,90,0.0,0.2,68,0.00,,,0.00,WUHU216HW,2013-02-13 07:10:00,
2013-02-13 00:15:00,36.2,27.0,27.52,ESE,113,0.4,1.1,69,0.00,,,0.00,WUHU216HW,2013-02-13 07:15:00,
2013-02-13 00:20:00,36.4,27.5,27.52,ESE,113,0.9,1.1,70,0.00,,,0.00,WUHU216HW,2013-02-13 07:20:00,
2013-02-13 00:25:00,36.4,27.5,27.51,ESE,113,0.0,1.1,70,0.00,,,0.00,WUHU216HW,2013-02-13 07:25:00,
2013-02-13 00:30:00,36.2,27.4,27.51,East,90,0.2,1.1,70,0.00,,,0.00,WUHU216HW,2013-02-13 07:30:00,
2013-02-13 00:35:00,36.0,27.2,27.52,ESE,113,0.0,0.9,70,0.00,,,0.00,WUHU216HW,2013-02-13 07:35:00,
2013-02-13 00:40:00,36.0,27.6,27.51,ESE,113,0.2,0.7,71,0.00,,,0.00,WUHU216HW,2013-02-13 07:40:00,
2013-02-13 00:45:00,35.8,27.4,27.51,East,90,0.2,0.9,71,0.00,,,0.00,WUHU216HW,2013-02-13 07:45:00,
2013-02-13 00:50:00,35.8,27.4,27.51,ESE,113,0.2,0.9,71,0.00,,,0.00,WUHU216HW,2013-02-13 07:50:00,
2013-02-13 00:55:00,35.8,27.4,27.51,East,90,0.0,0.9,71,0.00,,,0.00,WUHU216HW,2013-02-13 07:55:00,
2013-02-13 01:00:00,35.8,27.4,27.51,East,90,0.4,1.6,71,0.00,,,0.00,WUHU216HW,2013-02-13 08:00:00,
2013-02-13 01:05:00,35.6,27.2,27.51,East,90,0.0,1.6,71,0.00,,,0.00,WUHU216HW,2013-02-13 08:05:00,
2013-02-13 01:10:00,35.5,27.0,27.52,ESE,113,0.4,1.3,71,0.00,,,0.00,WUHU216HW,2013-02-13 08:10:00,
2013-02-13 01:15:00,35.3,27.1,27.52,NNE,23,0.9,2.2,72,0.00,,,0.00,WUHU216HW,2013-02-13 08:15:00,
2013-02-13 01:20:00,35.3,27.5,27.51,ESE,113,0.9,2.2,73,0.00,,,0.00,WUHU216HW,2013-02-13 08:20:00,
2013-02-13 01:25:00,35.3,27.5,27.51,ESE,113,1.6,2.2,73,0.00,,,0.00,WUHU216HW,2013-02-13 08:25:00,
2013-02-13 01:30:00,35.3,27.5,27.51,ESE,113,0.4,1.6,73,0.00,,,0.00,WUHU216HW,2013-02-13 08:30:00,
2013-02-13 01:35:00,35.3,27.5,27.51,East,90,1.1,1.6,73,0.00,,,0.00,WUHU216HW,2013-02-13 08:35:00,
2013-02-13 01:40:00,35.3,27.5,27.51,ESE,113,0.0,2.2,73,0.00,,,0.00,WUHU216HW,2013-02-13 08:40:00,
2013-02-13 01:45:00,35.3,27.5,27.51,East,90,0.9,2.2,73,0.00,,,0.00,WUHU216HW,2013-02-13 08:45:00,
2013-02-13 01:50:00,35.3,27.5,27.51,ENE,68,2.7,3.4,73,0.00,,,0.00,WUHU216HW,2013-02-13 08:50:00,
2013-02-13 01:55:00,35.6,28.1,27.51,ENE,68,3.4,4.0,74,0.00,,,0.00,WUHU216HW,2013-02-13 08:55:00,
2013-02-13 02:00:00,35.6,28.1,27.51,ESE,113,1.1,4.0,74,0.00,,,0.00,WUHU216HW,2013-02-13 09:00:00,
2013-02-13 02:05:00,35.6,27.8,27.51,ESE,113,3.8,3.8,73,0.00,,,0.00,WUHU216HW,2013-02-13 09:05:00,
2013-02-13 02:10:00,35.6,28.1,27.50,East,90,1.3,3.8,74,0.00,,,0.00,WUHU216HW,2013-02-13 09:10:00,
2013-02-13 02:15:00,35.8,28.0,27.50,SE,135,4.0,4.0,73,0.00,,,0.00,WUHU216HW,2013-02-13 09:15:00,
2013-02-13 02:20:00,36.2,28.4,27.50,ESE,113,3.8,4.0,73,0.00,,,0.00,WUHU216HW,2013-02-13 09:20:00,
2013-02-13 02:25:00,36.4,28.2,27.50,ENE,68,4.9,4.9,72,0.00,,,0.00,WUHU216HW,2013-02-13 09:25:00,
2013-02-13 02:30:00,36.5,28.1,27.49,NE,45,3.1,7.6,71,0.00,,,0.00,WUHU216HW,2013-02-13 09:30:00,
2013-02-13 02:35:00,36.5,28.1,27.49,ESE,113,2.5,7.6,71,0.00,,,0.00,WUHU216HW,2013-02-13 09:35:00,
2013-02-13 02:40:00,36.4,27.9,27.49,ESE,113,1.8,3.4,71,0.00,,,0.00,WUHU216HW,2013-02-13 09:40:00,
2013-02-13 02:45:00,36.2,27.7,27.49,ESE,113,0.7,2.7,71,0.00,,,0.00,WUHU216HW,2013-02-13 09:45:00,
2013-02-13 02:50:00,36.0,27.6,27.49,ESE,113,2.0,3.1,71,0.00,,,0.00,WUHU216HW,2013-02-13 09:50:00,
2013-02-13 02:55:00,35.6,27.2,27.48,ENE,68,1.8,3.1,71,0.00,,,0.00,WUHU216HW,2013-02-13 09:55:00,
2013-02-13 03:00:00,35.6,27.5,27.48,East,90,0.4,2.7,72,0.00,,,0.00,WUHU216HW,2013-02-13 10:00:00,
2013-02-13 03:05:00,35.6,27.5,27.48,ESE,113,0.4,2.7,72,0.00,,,0.00,WUHU216HW,2013-02-13 10:05:00,
2013-02-13 03:10:00,35.6,27.2,27.48,SSE,158,1.6,2.5,71,0.00,,,0.00,WUHU216HW,2013-02-13 10:10:00,
2013-02-13 03:15:00,36.0,27.6,27.48,SE,135,1.1,2.9,71,0.00,,,0.00,WUHU216HW,2013-02-13 10:15:00,
2013-02-13 03:20:00,36.4,27.5,27.48,SE,135,1.3,2.9,70,0.00,,,0.00,WUHU216HW,2013-02-13 10:20:00,
2013-02-13 03:25:00,36.5,27.4,27.47,SE,135,2.2,3.8,69,0.00,,,0.00,WUHU216HW,2013-02-13 10:25:00,
2013-02-13 03:30:00,36.7,27.2,27.47,ESE,113,2.5,4.7,68,0.00,,,0.00,WUHU216HW,2013-02-13 10:30:00,
2013-02-13 03:35:00,36.9,27.4,27.47,ESE,113,3.4,4.7,68,0.00,,,0.00,WUHU216HW,2013-02-13 10:35:00,
2013-02-13 03:40:00,36.9,27.0,27.47,SSE,158,1.3,3.4,67,0.00,,,0.00,WUHU216HW,2013-02-13 10:40:00,
2013-02-13 03:45:00,36.9,27.0,27.47,East,90,1.1,3.4,67,0.00,,,0.00,WUHU216HW,2013-02-13 10:45:00,
2013-02-13 03:50:00,36.7,26.8,27.47,SE,135,1.3,2.7,67,0.00,,,0.00,WUHU216HW,2013-02-13 10:50:00,
2013-02-13 03:55:00,36.7,26.8,27.47,ESE,113,0.9,2.5,67,0.00,,,0.00,WUHU216HW,2013-02-13 10:55:00,
2013-02-13 04:00:00,36.4,26.5,27.48,ESE,113,1.1,3.4,67,0.00,,,0.00,WUHU216HW,2013-02-13 11:00:00,
2013-02-13 04:05:00,36.2,26.3,27.47,ESE,113,0.4,3.4,67,0.00,,,0.00,WUHU216HW,2013-02-13 11:05:00,
2013-02-13 04:10:00,36.2,26.3,27.47,ESE,113,0.7,2.2,67,0.00,,,0.00,WUHU216HW,2013-02-13 11:10:00,
2013-02-13 04:15:00,36.0,26.1,27.47,ESE,113,1.3,2.0,67,0.00,,,0.00,WUHU216HW,2013-02-13 11:15:00,
2013-02-13 04:20:00,36.0,26.1,27.47,ESE,113,0.7,2.0,67,0.00,,,0.00,WUHU216HW,2013-02-13 11:20:00,
2013-02-13 04:25:00,35.6,26.1,27.47,ESE,113,0.7,2.0,68,0.00,,,0.00,WUHU216HW,2013-02-13 11:25:00,
2013-02-13 04:30:00,35.5,25.9,27.47,ESE,113,0.2,1.8,68,0.00,,,0.00,WUHU216HW,2013-02-13 11:30:00,
2013-02-13 04:35:00,35.3,25.7,27.46,ESE,113,0.0,1.8,68,0.00,,,0.00,WUHU216HW,2013-02-13 11:35:00,
2013-02-13 04:40:00,35.1,25.6,27.46,ESE,113,0.0,1.1,68,0.00,,,0.00,WUHU216HW,2013-02-13 11:40:00,
2013-02-13 04:45:00,34.9,25.4,27.47,East,90,0.0,1.1,68,0.00,,,0.00,WUHU216HW,2013-02-13 11:45:00,
2013-02-13 04:50:00,34.7,25.6,27.47,South,180,0.2,0.2,69,0.00,,,0.00,WUHU216HW,2013-02-13 11:50:00,
2013-02-13 04:55:00,34.6,25.4,27.48,SSW,203,0.0,0.2,69,0.00,,,0.00,WUHU216HW,2013-02-13 11:55:00,
2013-02-13 05:00:00,34.2,25.4,27.47,SSW,203,0.0,0.2,70,0.00,,,0.00,WUHU216HW,2013-02-13 12:00:00,
2013-02-13 05:05:00,33.8,25.0,27.48,WSW,248,0.0,0.0,70,0.00,,,0.00,WUHU216HW,2013-02-13 12:05:00,
2013-02-13 05:10:00,33.5,24.7,27.47,SW,225,0.0,0.0,70,0.00,,,0.00,WUHU216HW,2013-02-13 12:10:00,
2013-02-13 05:15:00,33.1,24.4,27.48,SW,225,0.2,0.2,70,0.00,,,0.00,WUHU216HW,2013-02-13 12:15:00,
2013-02-13 05:20:00,32.9,24.6,27.48,SW,225,0.0,0.2,71,0.00,,,0.00,WUHU216HW,2013-02-13 12:20:00,
2013-02-13 05:25:00,32.8,24.7,27.48,NNW,338,0.7,0.7,72,0.00,,,0.00,WUHU216HW,2013-02-13 12:25:00,
2013-02-13 05:30:00,32.6,24.6,27.48,NE,45,0.0,0.7,72,0.00,,,0.00,WUHU216HW,2013-02-13 12:30:00,
2013-02-13 05:35:00,32.4,24.4,27.48,ENE,68,0.0,0.7,72,0.00,,,0.00,WUHU216HW,2013-02-13 12:35:00,
2013-02-13 05:40:00,32.2,24.6,27.48,ENE,68,0.4,0.4,73,0.00,,,0.00,WUHU216HW,2013-02-13 12:40:00,
2013-02-13 05:45:00,32.0,24.4,27.48,ENE,68,0.0,0.4,73,0.00,,,0.00,WUHU216HW,2013-02-13 12:45:00,
2013-02-13 05:50:00,31.7,24.0,27.48,ENE,68,0.0,0.4,73,0.00,,,0.00,WUHU216HW,2013-02-13 12:50:00,
2013-02-13 05:55:00,31.5,23.9,27.48,ENE,68,0.0,0.0,73,0.00,,,0.00,WUHU216HW,2013-02-13 12:55:00,
2013-02-13 06:00:00,31.3,23.9,27.48,East,90,0.2,0.4,74,0.00,,,0.00,WUHU216HW,2013-02-13 13:00:00,
2013-02-13 06:05:00,31.3,23.9,27.48,East,90,0.0,0.4,74,0.00,,,0.00,WUHU216HW,2013-02-13 13:05:00,
2013-02-13 06:10:00,31.1,24.1,27.48,East,90,0.0,0.4,75,0.00,,,0.00,WUHU216HW,2013-02-13 13:10:00,
2013-02-13 06:15:00,31.1,24.1,27.49,East,90,0.0,0.0,75,0.00,,,0.00,WUHU216HW,2013-02-13 13:15:00,
2013-02-13 06:20:00,31.0,24.6,27.49,East,90,0.0,0.0,77,0.00,,,0.00,WUHU216HW,2013-02-13 13:20:00,
2013-02-13 06:25:00,31.0,24.6,27.49,North,0,0.0,0.0,77,0.00,,,0.00,WUHU216HW,2013-02-13 13:25:00,
2013-02-13 06:30:00,31.0,24.3,27.49,North,0,0.0,0.0,76,0.00,,,0.00,WUHU216HW,2013-02-13 13:30:00,
2013-02-13 06:35:00,30.6,24.0,27.49,North,0,0.0,0.0,76,0.00,,,0.00,WUHU216HW,2013-02-13 13:35:00,
2013-02-13 06:40:00,30.6,24.0,27.49,North,0,0.0,0.0,76,0.00,,,0.00,WUHU216HW,2013-02-13 13:40:00,
2013-02-13 06:45:00,30.4,23.8,27.49,East,90,0.0,0.0,76,0.00,,,0.00,WUHU216HW,2013-02-13 13:45:00,
2013-02-13 06:50:00,30.4,24.0,27.49,East,90,0.0,0.0,77,0.00,,,0.00,WUHU216HW,2013-02-13 13:50:00,
2013-02-13 06:55:00,30.4,24.0,27.50,East,90,0.0,0.0,77,0.00,,,0.00,WUHU216HW,2013-02-13 13:55:00,
2013-02-13 07:00:00,30.4,24.0,27.50,East,90,0.0,0.0,77,0.00,,,0.00,WUHU216HW,2013-02-13 14:00:00,
2013-02-13 07:05:00,30.4,24.0,27.50,East,90,0.0,0.0,77,0.00,,,0.00,WUHU216HW,2013-02-13 14:05:00,
2013-02-13 07:10:00,30.6,24.6,27.50,East,90,0.4,0.4,78,0.00,,,0.00,WUHU216HW,2013-02-13 14:10:00,
2013-02-13 07:15:00,30.6,24.2,27.50,East,90,0.0,0.4,77,0.00,,,0.00,WUHU216HW,2013-02-13 14:15:00,
2013-02-13 07:20:00,30.8,24.4,27.50,ESE,113,0.0,0.7,77,0.00,,,0.00,WUHU216HW,2013-02-13 14:20:00,
2013-02-13 07:25:00,31.0,24.6,27.50,ESE,113,0.0,0.7,77,0.00,,,0.00,WUHU216HW,2013-02-13 14:25:00,
2013-02-13 07:30:00,31.0,24.9,27.50,ESE,113,0.0,0.0,78,0.00,,,0.00,WUHU216HW,2013-02-13 14:30:00,
2013-02-13 07:35:00,31.1,24.8,27.50,ESE,113,0.0,0.0,77,0.00,,,0.00,WUHU216HW,2013-02-13 14:35:00,
2013-02-13 07:40:00,31.3,25.3,27.50,East,90,0.2,0.4,78,0.00,,,0.00,WUHU216HW,2013-02-13 14:40:00,
2013-02-13 07:45:00,31.5,25.5,27.51,ESE,113,0.2,1.1,78,0.00,,,0.00,WUHU216HW,2013-02-13 14:45:00,
2013-02-13 07:50:00,32.0,26.0,27.51,ESE,113,0.2,1.6,78,0.00,,,0.00,WUHU216HW,2013-02-13 14:50:00,
2013-02-13 07:55:00,32.0,25.7,27.51,ESE,113,0.0,1.6,77,0.00,,,0.00,WUHU216HW,2013-02-13 14:55:00,
2013-02-13 08:00:00,32.2,25.5,27.51,ESE,113,0.0,0.2,76,0.00,,,0.00,WUHU216HW,2013-02-13 15:00:00,
2013-02-13 08:05:00,32.0,25.4,27.51,East,90,0.4,0.4,76,0.00,,,0.00,WUHU216HW,2013-02-13 15:05:00,
2013-02-13 08:10:00,32.2,25.8,27.51,ESE,113,1.1,1.1,77,0.00,,,0.00,WUHU216HW,2013-02-13 15:10:00,
2013-02-13 08:15:00,32.9,26.2,27.52,ESE,113,0.9,1.1,76,0.00,,,0.00,WUHU216HW,2013-02-13 15:15:00,
2013-02-13 08:20:00,33.7,26.8,27.52,East,90,0.4,1.8,76,0.00,,,0.00,WUHU216HW,2013-02-13 15:20:00,
2013-02-13 08:25:00,34.2,26.6,27.52,East,90,0.7,1.8,74,0.00,,,0.00,WUHU216HW,2013-02-13 15:25:00,
2013-02-13 08:30:00,34.9,27.1,27.52,ESE,113,1.3,1.6,73,0.00,,,0.00,WUHU216HW,2013-02-13 15:30:00,
2013-02-13 18:26:00,55.4,25.2,27.43,WNW,293,1.1,1.1,31,0.00,,,0.00,WUHU216HW,2013-02-14 01:26:00,
2013-02-13 18:31:00,55.1,25.6,27.43,North,0,1.3,2.7,32,0.00,,,0.00,WUHU216HW,2013-02-14 01:31:00,
2013-02-13 18:36:00,54.7,25.3,27.43,NE,45,1.1,3.4,32,0.00,,,0.00,WUHU216HW,2013-02-14 01:36:00,
2013-02-13 18:41:00,54.4,25.0,27.43,WNW,293,0.7,3.4,32,0.00,,,0.00,WUHU216HW,2013-02-14 01:41:00,
2013-02-13 18:46:00,54.2,25.6,27.43,NW,315,2.9,3.4,33,0.00,,,0.00,WUHU216HW,2013-02-14 01:46:00,
2013-02-13 18:51:00,53.8,25.9,27.43,WNW,293,0.9,2.9,34,0.00,,,0.00,WUHU216HW,2013-02-14 01:51:00,
2013-02-13 18:56:00,53.6,25.7,27.43,NW,315,1.1,2.9,34,0.00,,,0.00,WUHU216HW,2013-02-14 01:56:00,
2013-02-13 19:01:00,53.5,25.7,27.44,North,0,1.6,2.9,34,0.00,,,0.00,WUHU216HW,2013-02-14 02:01:00,
2013-02-13 19:07:00,52.9,25.1,27.44,West,270,0.9,2.2,34,0.00,,,0.00,WUHU216HW,2013-02-14 02:07:00,
2013-02-13 19:12:00,52.9,25.1,27.44,NW,315,0.4,2.2,34,0.00,,,0.00,WUHU216HW,2013-02-14 02:12:00,
2013-02-13 19:17:00,52.6,24.9,27.44,WNW,293,0.2,1.8,34,0.00,,,0.00,WUHU216HW,2013-02-14 02:17:00,
2013-02-13 19:22:00,52.2,25.2,27.44,WNW,293,0.4,1.8,35,0.00,,,0.00,WUHU216HW,2013-02-14 02:22:00,
2013-02-13 19:27:00,52.0,25.7,27.44,West,270,0.0,1.1,36,0.00,,,0.00,WUHU216HW,2013-02-14 02:27:00,
2013-02-13 19:32:00,51.7,25.4,27.44,SSW,203,0.4,1.1,36,0.00,,,0.00,WUHU216HW,2013-02-14 02:32:00,
2013-02-13 19:37:00,51.5,25.9,27.44,West,270,0.0,1.1,37,0.00,,,0.00,WUHU216HW,2013-02-14 02:37:00,
2013-02-13 19:42:00,51.3,25.8,27.44,WNW,293,0.9,1.3,37,0.00,,,0.00,WUHU216HW,2013-02-14 02:42:00,
2013-02-13 19:47:00,51.1,26.3,27.44,West,270,0.4,2.0,38,0.00,,,0.00,WUHU216HW,2013-02-14 02:47:00,
2013-02-13 19:52:00,50.9,26.1,27.44,West,270,0.4,2.0,38,0.00,,,0.00,WUHU216HW,2013-02-14 02:52:00,
2013-02-13 19:57:00,50.8,25.9,27.44,West,270,0.7,1.3,38,0.00,,,0.00,WUHU216HW,2013-02-14 02:57:00,
2013-02-13 20:02:00,50.6,26.5,27.45,West,270,1.1,1.1,39,0.00,,,0.00,WUHU216HW,2013-02-14 03:02:00,
2013-02-13 20:07:00,50.4,27.0,27.44,NNW,338,0.4,1.1,40,0.00,,,0.00,WUHU216HW,2013-02-14 03:07:00,
2013-02-13 20:12:00,50.2,26.8,27.45,West,270,0.4,1.3,40,0.00,,,0.00,WUHU216HW,2013-02-14 03:12:00,
2013-02-13 20:17:00,50.0,26.6,27.44,NW,315,0.4,1.3,40,0.00,,,0.00,WUHU216HW,2013-02-14 03:17:00,
2013-02-13 20:22:00,50.0,25.9,27.45,West,270,0.4,1.1,39,0.00,,,0.00,WUHU216HW,2013-02-14 03:22:00,
2013-02-13 20:27:00,49.7,26.3,27.45,West,270,0.0,1.1,40,0.00,,,0.00,WUHU216HW,2013-02-14 03:27:00,
2013-02-13 20:32:00,49.5,26.2,27.45,SW,225,0.0,1.8,40,0.00,,,0.00,WUHU216HW,2013-02-14 03:32:00,
2013-02-13 20:37:00,49.3,26.0,27.45,SW,225,0.0,1.8,40,0.00,,,0.00,WUHU216HW,2013-02-14 03:37:00,
2013-02-13 20:42:00,49.0,25.7,27.45,SE,135,0.0,0.4,40,0.00,,,0.00,WUHU216HW,2013-02-14 03:42:00,
2013-02-13 20:47:00,48.6,25.4,27.45,WSW,248,0.7,0.7,40,0.00,,,0.00,WUHU216HW,2013-02-14 03:47:00,
2013-02-13 20:52:00,48.4,26.3,27.45,WSW,248,0.7,1.1,42,0.00,,,0.00,WUHU216HW,2013-02-14 03:52:00,
2013-02-13 20:57:00,48.2,26.1,27.45,South,180,0.7,1.6,42,0.00,,,0.00,WUHU216HW,2013-02-14 03:57:00,
2013-02-13 21:02:00,47.9,25.7,27.45,SE,135,0.0,1.6,42,0.00,,,0.00,WUHU216HW,2013-02-14 04:02:00,
2013-02-13 21:07:00,47.7,26.2,27.45,SE,135,0.0,1.1,43,0.00,,,0.00,WUHU216HW,2013-02-14 04:07:00,
2013-02-13 21:12:00,47.3,26.4,27.46,SE,135,0.0,1.1,44,0.00,,,0.00,WUHU216HW,2013-02-14 04:12:00,
2013-02-13 21:17:00,47.0,26.0,27.46,SE,135,0.0,0.9,44,0.00,,,0.00,WUHU216HW,2013-02-14 04:17:00,
2013-02-13 21:22:00,46.8,26.5,27.46,SE,135,0.4,0.4,45,0.00,,,0.00,WUHU216HW,2013-02-14 04:22:00,
2013-02-13 21:27:00,46.4,26.1,27.46,SE,135,0.7,0.7,45,0.00,,,0.00,WUHU216HW,2013-02-14 04:27:00,
2013-02-13 21:32:00,46.3,25.9,27.46,SE,135,0.0,0.7,45,0.00,,,0.00,WUHU216HW,2013-02-14 04:32:00,
2013-02-13 21:37:00,46.1,26.3,27.46,SE,135,0.4,0.9,46,0.00,,,0.00,WUHU216HW,2013-02-14 04:37:00,
2013-02-13 21:42:00,45.9,26.7,27.46,ESE,113,0.0,0.9,47,0.00,,,0.00,WUHU216HW,2013-02-14 04:42:00,
2013-02-13 21:47:00,45.7,27.1,27.46,ESE,113,1.1,1.1,48,0.00,,,0.00,WUHU216HW,2013-02-14 04:47:00,
2013-02-13 21:52:00,45.5,26.9,27.46,ESE,113,0.0,1.3,48,0.00,,,0.00,WUHU216HW,2013-02-14 04:52:00,
2013-02-13 21:57:00,45.2,26.6,27.46,ESE,113,0.7,1.3,48,0.00,,,0.00,WUHU216HW,2013-02-14 04:57:00,
2013-02-13 22:00:00,45.0,27.6,27.46,ESE,113,0.9,1.3,50,0.00,,,0.00,WUHU216HW,2013-02-14 05:00:00,
2013-02-13 22:01:00,45.0,27.0,27.46,SE,135,0.2,1.1,49,0.00,,,0.00,WUHU216HW,2013-02-14 05:01:00,
2013-02-13 22:06:00,44.8,27.8,27.46,East,90,1.1,1.8,51,0.00,,,0.00,WUHU216HW,2013-02-14 05:06:00,
2013-02-13 22:11:00,44.6,27.2,27.46,ESE,113,0.4,2.2,50,0.00,,,0.00,WUHU216HW,2013-02-14 05:11:00,
2013-02-13 22:16:00,44.5,27.5,27.46,ESE,113,1.1,2.2,51,0.00,,,0.00,WUHU216HW,2013-02-14 05:16:00,
2013-02-13 22:21:00,44.3,27.3,27.46,ESE,113,0.9,1.8,51,0.00,,,0.00,WUHU216HW,2013-02-14 05:21:00,
2013-02-13 22:26:00,44.3,27.3,27.46,ESE,113,0.2,1.8,51,0.00,,,0.00,WUHU216HW,2013-02-14 05:26:00,
2013-02-13 22:31:00,44.1,27.2,27.46,SE,135,0.2,1.6,51,0.00,,,0.00,WUHU216HW,2013-02-14 05:31:00,
2013-02-13 22:36:00,43.9,27.0,27.46,SE,135,0.7,1.6,51,0.00,,,0.00,WUHU216HW,2013-02-14 05:36:00,
2013-02-13 22:41:00,43.9,27.5,27.46,SE,135,0.2,1.6,52,0.00,,,0.00,WUHU216HW,2013-02-14 05:41:00,
2013-02-13 22:46:00,43.7,27.7,27.46,SE,135,0.2,1.6,53,0.00,,,0.00,WUHU216HW,2013-02-14 05:46:00,
2013-02-13 22:51:00,43.7,27.3,27.46,ESE,113,0.0,1.1,52,0.00,,,0.00,WUHU216HW,2013-02-14 05:51:00,
2013-02-13 22:56:00,43.6,27.1,27.46,ESE,113,0.9,0.9,52,0.00,,,0.00,WUHU216HW,2013-02-14 05:56:00,
2013-02-13 23:01:00,43.6,27.6,27.46,ESE,113,0.4,1.1,53,0.00,,,0.00,WUHU216HW,2013-02-14 06:01:00,
2013-02-13 23:06:00,43.2,27.2,27.46,SE,135,0.7,1.8,53,0.00,,,0.00,WUHU216HW,2013-02-14 06:06:00,
2013-02-13 23:11:00,43.0,27.0,27.46,East,90,0.7,1.8,53,0.00,,,0.00,WUHU216HW,2013-02-14 06:11:00,
2013-02-13 23:16:00,42.8,26.8,27.46,East,90,1.1,2.0,53,0.00,,,0.00,WUHU216HW,2013-02-14 06:16:00,
2013-02-13 23:21:00,42.8,26.8,27.46,ESE,113,0.9,2.0,53,0.00,,,0.00,WUHU216HW,2013-02-14 06:21:00,
2013-02-13 23:26:00,42.7,26.6,27.46,ESE,113,0.4,1.1,53,0.00,,,0.00,WUHU216HW,2013-02-14 06:26:00,
2013-02-13 23:31:00,42.5,26.9,27.46,ENE,68,0.9,1.3,54,0.00,,,0.00,WUHU216HW,2013-02-14 06:31:00,
2013-02-13 23:36:00,42.3,27.2,27.46,East,90,0.4,1.3,55,0.00,,,0.00,WUHU216HW,2013-02-14 06:36:00,
2013-02-13 23:41:00,42.1,27.0,27.46,East,90,0.0,1.3,55,0.00,,,0.00,WUHU216HW,2013-02-14 06:41:00,
2013-02-13 23:46:00,41.9,26.9,27.46,East,90,1.1,1.1,55,0.00,,,0.00,WUHU216HW,2013-02-14 06:46:00,
2013-02-13 23:51:00,41.9,26.9,27.46,SE,135,0.0,1.1,55,0.00,,,0.00,WUHU216HW,2013-02-14 06:51:00,
2013-02-13 23:56:00,41.6,27.0,27.46,ESE,113,0.4,0.7,56,0.00,,,0.00,WUHU216HW,2013-02-14 06:56:00,